sat.trackr.live / text

‹ back to catalog

STARLINK-31625

NORAD 59458 · 2024-068D

PAYLOAD ACTIVE UNKNOWN

§ Identity

Operator
Country
US
Launch date
2024-04-10
Launch site
AFETR
Launch vehicle
Mass (kg)
RCS (m²)

Purposes: comms

External: N2YO · Heavens-Above · Gunter

§ Orbital elements

Epoch: 2026-09-21T14:22:57.504288Z

Period
94.27 min
Inclination
43.0044°
Eccentricity
0.0001292
Mean motion
15.27585417 rev/d
Perigee alt
482.1 km
Apogee alt
483.9 km
Semi-major
6,861.2 km
B*
3.5666e-5
RAAN
8.2028°
Arg perigee
270.4280°
Mean anomaly
89.6424°
Rev number
13,848

§ Raw data

STARLINK-316251 59458U 24068D   26264.59927667  .00000720  00000+0  35666-4 0  99902 59458  43.0044   8.2028 0001292 270.4280  89.6424 15.27585417138487

JSON: /api/v1/satellites/59458 · /tle

For live sub-satellite position, see the globe view (requires WebGL).

§ Visibility from observer

Set your observer location to see the next 7 days of passes ≥ 10°. The values pass through the URL so the page stays shareable.

No JS? Fill the form by hand. The geolocation button needs JavaScript.